contact:dominique.lefevre@mio.osupytheas.fr, maurice.libes@osupytheas.fr, didier.mallarino@osupytheas.fr
Project:EMSO http://www.emso-fr.org/EMSO-France
Depth: 2436.0 m
Title:EMSO Ligure Ouest : Data MII capteur AQUADOPP
Date,Latitude,Longitude,X_East,Y_North,Z_Up,Amplitude_X,Amplitude_Y,Amplitude_Z,Batterie,SoundSpeed,Heading,Pitch,Roll,Pressure,TIS,Speed,Direction
, degrees North, degrees East, m.s-1, m.s-1,m.s-1, 1, 1, 1, Volt, m.s-1, degree, degree, degree, dbar, degree_C, m.s-1, degree
2022-11-27T00:04:03,42.805,6.029,0.045,-0.016,0.014,102.0,103.0,100.0,13.3,1505.2,324.9,-0.8,1.8,2471.129,13.28,0.047,109.6
2022-11-27T00:07:03,42.805,6.029,0.025,-0.032,-0.039,100.0,103.0,100.0,13.4,1505.2,327.4,-0.7,1.8,2471.11,13.28,0.04,142.0
2022-11-27T00:10:03,42.805,6.029,0.02,0.008,0.021,101.0,101.0,100.0,13.3,1505.2,329.0,-0.8,1.8,2471.073,13.28,0.021,68.2
2022-11-27T00:13:03,42.805,6.029,0.016,0.0,0.027,101.0,102.0,100.0,13.3,1505.2,324.0,-0.8,1.8,2471.088,13.28,0.016,90.0
2022-11-27T00:16:03,42.805,6.029,0.023,-0.006,0.001,101.0,102.0,101.0,13.3,1505.2,326.7,-0.8,1.9,2471.043,13.28,0.023,104.6
2022-11-27T00:19:03,42.805,6.029,0.031,0.002,0.017,102.0,101.0,100.0,13.4,1505.2,318.0,-0.8,1.8,2471.049,13.28,0.031,86.3
2022-11-27T00:22:03,42.805,6.029,0.033,-0.001,-0.006,102.0,103.0,100.0,13.4,1505.2,329.2,-0.8,1.9,2471.055,13.29,0.033,91.7
2022-11-27T00:25:03,42.805,6.029,0.027,0.003,0.02,101.0,103.0,101.0,13.4,1505.2,318.2,-0.8,1.8,2471.059,13.29,0.027,83.7
2022-11-27T00:28:03,42.805,6.029,0.012,-0.007,-0.004,101.0,102.0,100.0,13.3,1505.2,316.8,-0.8,1.8,2471.054,13.29,0.013,120.3
2022-11-27T00:31:03,42.805,6.029,0.005,-0.004,-0.018,102.0,102.0,100.0,13.3,1505.2,334.7,-0.8,1.8,2471.045,13.29,0.006,128.7
2022-11-27T00:34:03,42.805,6.029,0.025,0.01,0.024,102.0,103.0,99.0,13.4,1505.2,323.8,-0.7,1.8,2471.042,13.29,0.026,68.2
2022-11-27T00:37:03,42.805,6.029,0.044,-0.009,-0.001,102.0,101.0,101.0,13.4,1505.2,329.2,-0.7,1.8,2471.019,13.29,0.044,101.6
2022-11-27T00:40:03,42.805,6.029,0.01,-0.014,-0.004,102.0,102.0,100.0,13.3,1505.2,332.4,-0.8,1.8,2471.04,13.29,0.017,144.5
2022-11-27T00:43:03,42.805,6.029,0.034,-0.006,0.004,102.0,101.0,100.0,13.4,1505.2,322.3,-0.8,1.8,2471.004,13.29,0.034,100.0
2022-11-27T00:46:03,42.805,6.029,0.028,-0.003,0.002,101.0,102.0,100.0,13.3,1505.2,334.8,-0.8,1.8,2471.039,13.29,0.028,96.1
2022-11-27T00:49:03,42.805,6.029,-0.001,-0.03,-0.005,101.0,101.0,100.0,13.4,1505.2,320.5,-0.8,1.8,2471.035,13.29,0.03,181.9
2022-11-27T00:52:03,42.805,6.029,0.016,-0.007,0.029,101.0,102.0,100.0,13.4,1505.2,317.3,-0.8,1.9,2471.048,13.29,0.017,113.6
2022-11-27T00:55:03,42.805,6.029,0.001,0.003,0.013,101.0,102.0,100.0,13.4,1505.2,336.9,-0.8,1.8,2471.007,13.29,0.003,18.4
2022-11-27T00:58:03,42.805,6.029,0.033,0.003,0.01,101.0,103.0,100.0,13.4,1505.2,328.3,-0.7,1.9,2471.041,13.29,0.033,84.8
2022-11-27T01:04:03,42.805,6.029,0.002,-0.027,-0.05,102.0,104.0,102.0,13.3,1505.2,332.5,-0.8,1.8,2471.049,13.28,0.027,175.8
2022-11-27T01:07:03,42.805,6.029,0.013,0.004,0.005,101.0,102.0,101.0,13.3,1505.2,320.9,-0.7,1.8,2471.071,13.28,0.013,72.9
2022-11-27T01:10:03,42.805,6.029,0.045,-0.014,-0.04,102.0,102.0,101.0,13.3,1505.2,329.0,-0.8,1.8,2470.996,13.28,0.047,107.3
2022-11-27T01:13:03,42.805,6.029,0.032,0.015,0.026,102.0,102.0,100.0,13.4,1505.2,330.4,-0.8,1.8,2471.044,13.28,0.035,64.9
2022-11-27T01:16:03,42.805,6.029,0.01,-0.008,0.0,102.0,102.0,100.0,13.4,1505.2,321.4,-0.8,1.8,2471.051,13.29,0.012,128.7
2022-11-27T01:19:03,42.805,6.029,0.034,0.01,0.008,100.0,102.0,101.0,13.3,1505.2,322.3,-0.8,1.8,2471.04,13.29,0.035,73.6
2022-11-27T01:22:03,42.805,6.029,0.039,-0.014,-0.003,101.0,102.0,100.0,13.3,1505.2,323.8,-0.7,1.8,2471.035,13.29,0.041,109.7
2022-11-27T01:25:03,42.805,6.029,0.028,-0.014,-0.03,101.0,102.0,100.0,13.3,1505.2,328.2,-0.7,1.8,2471.059,13.29,0.031,116.6
2022-11-27T01:28:03,42.805,6.029,0.025,-0.004,0.005,101.0,102.0,100.0,13.4,1505.2,322.1,-0.8,1.9,2471.014,13.29,0.025,99.1
2022-11-27T01:31:03,42.805,6.029,0.03,-0.001,-0.012,103.0,104.0,99.0,13.4,1505.2,321.1,-0.8,1.8,2470.98,13.29,0.03,91.9
2022-11-27T01:34:03,42.805,6.029,0.004,-0.001,-0.015,101.0,102.0,101.0,13.4,1505.2,319.1,-0.7,1.8,2470.994,13.29,0.004,104.0
2022-11-27T01:37:03,42.805,6.029,0.031,-0.007,-0.002,102.0,102.0,101.0,13.4,1505.2,325.8,-0.8,1.8,2471.005,13.29,0.031,102.7
2022-11-27T01:40:03,42.805,6.029,0.028,0.004,0.003,101.0,103.0,100.0,13.3,1505.2,330.0,-0.8,1.8,2470.993,13.29,0.028,81.9
2022-11-27T01:43:03,42.805,6.029,0.009,-0.001,0.01,102.0,102.0,100.0,13.4,1505.2,322.2,-0.8,1.8,2470.994,13.29,0.009,96.3
2022-11-27T01:46:03,42.805,6.029,0.03,0.004,0.014,101.0,102.0,100.0,13.4,1505.2,324.9,-0.8,1.8,2470.994,13.29,0.03,82.4
2022-11-27T01:49:03,42.805,6.029,0.025,-0.004,-0.013,101.0,103.0,100.0,13.4,1505.2,320.2,-0.8,1.8,2471.017,13.29,0.025,99.1
2022-11-27T01:52:03,42.805,6.029,0.026,-0.014,0.011,100.0,103.0,101.0,13.4,1505.2,319.5,-0.8,1.8,2470.969,13.29,0.029,118.3
2022-11-27T01:55:03,42.805,6.029,0.039,-0.007,0.006,101.0,102.0,100.0,13.4,1505.2,333.7,-0.8,1.8,2471.013,13.29,0.039,100.2
2022-11-27T01:58:03,42.805,6.029,0.011,0.02,-0.01,101.0,102.0,101.0,13.3,1505.2,326.3,-0.8,1.8,2470.963,13.29,0.022,28.8
2022-11-27T02:04:03,42.805,6.029,0.034,-0.008,-0.023,100.0,102.0,100.0,13.4,1505.2,330.6,-0.7,1.8,2471.011,13.28,0.034,103.2
2022-11-27T02:07:03,42.805,6.029,0.038,-0.022,-0.012,101.0,102.0,100.0,13.3,1505.2,322.9,-0.8,1.8,2471.008,13.28,0.043,120.1
2022-11-27T02:10:03,42.805,6.029,0.004,-0.005,-0.016,101.0,102.0,100.0,13.4,1505.2,318.3,-0.8,1.8,2471.014,13.28,0.006,141.3
2022-11-27T02:13:03,42.805,6.029,0.02,-0.002,0.014,102.0,102.0,101.0,13.4,1505.2,321.6,-0.8,1.8,2471.0,13.28,0.02,95.7
2022-11-27T02:16:03,42.805,6.029,0.054,-0.007,-0.009,101.0,102.0,101.0,13.4,1505.2,321.9,-0.7,1.8,2470.992,13.28,0.054,97.4
2022-11-27T02:19:03,42.805,6.029,0.043,0.01,0.003,102.0,102.0,100.0,13.4,1505.2,329.5,-0.8,1.8,2470.968,13.29,0.044,76.9
2022-11-27T02:22:03,42.805,6.029,0.021,-0.012,-0.021,100.0,102.0,100.0,13.3,1505.2,316.3,-0.8,1.9,2470.966,13.29,0.024,119.7
2022-11-27T02:25:03,42.805,6.029,0.023,-0.008,0.012,101.0,101.0,100.0,13.3,1505.2,327.9,-0.7,1.8,2471.021,13.29,0.024,109.2
2022-11-27T02:28:03,42.805,6.029,0.01,-0.01,-0.008,101.0,102.0,101.0,13.4,1505.2,321.8,-0.7,1.8,2470.955,13.29,0.014,135.0
2022-11-27T02:31:03,42.805,6.029,0.029,0.0,0.014,102.0,101.0,100.0,13.4,1505.2,322.8,-0.8,1.8,2471.001,13.29,0.028,90.0
2022-11-27T02:34:03,42.805,6.029,0.03,0.004,-0.012,102.0,102.0,101.0,13.4,1505.2,327.6,-0.8,1.8,2470.94,13.29,0.03,82.4
2022-11-27T02:37:03,42.805,6.029,0.014,0.0,-0.023,101.0,101.0,101.0,13.3,1505.2,316.8,-0.7,1.8,2470.988,13.29,0.014,90.0
2022-11-27T02:40:03,42.805,6.029,0.005,-0.012,-0.02,101.0,101.0,100.0,13.3,1505.2,332.3,-0.8,1.8,2470.97,13.29,0.013,157.4
2022-11-27T02:43:03,42.805,6.029,0.016,-0.008,-0.044,102.0,102.0,100.0,13.3,1505.2,327.5,-0.8,1.8,2470.975,13.29,0.017,116.6
2022-11-27T02:46:03,42.805,6.029,0.039,-0.001,-0.018,101.0,101.0,100.0,13.4,1505.2,327.3,-0.8,1.8,2470.96,13.29,0.039,91.5
2022-11-27T02:49:03,42.805,6.029,0.003,-0.026,-0.009,102.0,101.0,100.0,13.4,1505.2,322.9,-0.8,1.8,2471.012,13.29,0.026,173.4
2022-11-27T02:52:03,42.805,6.029,0.021,-0.035,-0.013,101.0,101.0,101.0,13.3,1505.2,322.1,-0.8,1.8,2470.972,13.29,0.04,149.0
2022-11-27T02:55:03,42.805,6.029,0.025,-0.012,-0.001,102.0,103.0,100.0,13.4,1505.2,330.7,-0.8,1.8,2470.972,13.29,0.027,115.6
2022-11-27T02:58:03,42.805,6.029,0.048,-0.029,-0.003,101.0,102.0,100.0,13.4,1505.2,330.7,-0.7,1.8,2470.942,13.29,0.056,121.1
2022-11-27T03:04:03,42.805,6.029,0.025,-0.016,-0.014,101.0,102.0,100.0,13.4,1505.2,335.5,-0.8,1.8,2470.974,13.28,0.029,122.6
2022-11-27T03:07:03,42.805,6.029,0.043,0.006,0.016,102.0,101.0,100.0,13.4,1505.2,322.1,-0.7,1.8,2471.005,13.28,0.043,82.1
2022-11-27T03:10:03,42.805,6.029,0.027,-0.019,0.0,100.0,103.0,100.0,13.4,1505.2,317.4,-0.8,1.8,2471.021,13.28,0.033,125.1
2022-11-27T03:13:03,42.805,6.029,0.026,0.003,0.0,101.0,102.0,100.0,13.3,1505.2,327.9,-0.8,1.8,2471.015,13.28,0.026,83.4
2022-11-27T03:16:03,42.805,6.029,0.038,0.006,0.002,101.0,101.0,100.0,13.3,1505.2,330.2,-0.7,1.8,2471.004,13.29,0.038,81.0
2022-11-27T03:19:03,42.805,6.029,0.026,-0.015,-0.018,102.0,101.0,101.0,13.4,1505.2,329.1,-0.8,1.8,2470.969,13.29,0.03,120.0
2022-11-27T03:22:03,42.805,6.029,0.012,-0.012,-0.039,102.0,103.0,101.0,13.4,1505.2,326.7,-0.8,1.8,2471.033,13.29,0.016,135.0
2022-11-27T03:25:03,42.805,6.029,0.036,-0.006,0.002,102.0,101.0,101.0,13.4,1505.2,326.3,-0.8,1.8,2470.953,13.29,0.036,99.5
2022-11-27T03:28:03,42.805,6.029,0.03,0.017,0.007,101.0,102.0,100.0,13.3,1505.2,320.1,-0.8,1.8,2470.958,13.29,0.034,60.5
2022-11-27T03:31:03,42.805,6.029,-0.006,0.0,-0.014,102.0,103.0,100.0,13.4,1505.2,323.9,-0.8,1.8,2470.984,13.29,0.006,270.0
2022-11-27T03:34:03,42.805,6.029,0.03,0.002,0.002,102.0,102.0,99.0,13.4,1505.2,331.9,-0.8,1.8,2470.958,13.29,0.03,86.2
2022-11-27T03:37:03,42.805,6.029,0.048,-0.024,0.014,103.0,102.0,100.0,13.4,1505.2,329.7,-0.7,1.8,2470.968,13.29,0.053,116.6
2022-11-27T03:40:03,42.805,6.029,0.033,0.006,0.008,102.0,102.0,100.0,13.3,1505.2,317.2,-0.8,1.8,2470.957,13.29,0.033,79.7
2022-11-27T03:43:03,42.805,6.029,0.022,0.012,0.002,102.0,102.0,101.0,13.4,1505.2,316.8,-0.8,1.8,2471.012,13.29,0.025,61.4
2022-11-27T03:46:03,42.805,6.029,0.038,-0.007,-0.013,102.0,100.0,101.0,13.3,1505.2,322.8,-0.7,1.8,2470.988,13.29,0.038,100.4
2022-11-27T03:49:03,42.805,6.029,0.019,-0.033,-0.033,101.0,102.0,99.0,13.3,1505.2,328.0,-0.8,1.8,2470.99,13.29,0.038,150.1
2022-11-27T03:52:03,42.805,6.029,0.05,-0.018,-0.03,99.0,104.0,101.0,13.4,1505.2,324.1,-0.7,1.8,2470.975,13.29,0.053,109.8
2022-11-27T03:55:03,42.805,6.029,0.009,-0.018,-0.029,100.0,101.0,100.0,13.3,1505.2,330.5,-0.8,1.8,2471.01,13.29,0.02,153.4
2022-11-27T03:58:03,42.805,6.029,0.0,0.0,0.01,100.0,103.0,100.0,13.4,1505.2,323.7,-0.7,1.8,2471.003,13.29,0.0,0.0
2022-11-27T04:04:03,42.805,6.029,0.001,-0.01,-0.041,101.0,102.0,100.0,13.4,1505.2,335.4,-0.8,1.8,2471.09,13.28,0.01,174.3
2022-11-27T04:07:03,42.805,6.029,0.005,-0.011,-0.009,100.0,102.0,101.0,13.4,1505.2,326.4,-0.8,1.8,2471.028,13.28,0.012,155.6
2022-11-27T04:10:03,42.805,6.029,0.018,-0.01,-0.016,101.0,102.0,100.0,13.4,1505.2,321.2,-0.7,1.8,2471.011,13.28,0.02,119.1
2022-11-27T04:13:03,42.805,6.029,0.017,-0.022,-0.023,102.0,100.0,101.0,13.3,1505.2,326.7,-0.8,1.8,2470.997,13.28,0.027,142.3
2022-11-27T04:16:03,42.805,6.029,0.006,-0.021,-0.028,100.0,102.0,100.0,13.4,1505.2,330.7,-0.8,1.8,2471.06,13.28,0.021,164.1
2022-11-27T04:19:03,42.805,6.029,0.049,-0.016,-0.022,101.0,101.0,100.0,13.4,1505.2,326.6,-0.8,1.8,2471.031,13.29,0.051,108.1
2022-11-27T04:22:03,42.805,6.029,0.029,-0.024,-0.029,102.0,103.0,99.0,13.4,1505.2,333.7,-0.8,1.9,2471.021,13.29,0.037,129.6
2022-11-27T04:25:03,42.805,6.029,0.036,-0.022,-0.006,103.0,101.0,100.0,13.4,1505.2,324.6,-0.8,1.9,2470.998,13.29,0.042,121.4
2022-11-27T04:28:03,42.805,6.029,0.032,-0.015,-0.026,102.0,101.0,100.0,13.4,1505.2,332.2,-0.8,1.8,2471.01,13.29,0.035,115.1
2022-11-27T04:31:03,42.805,6.029,0.031,-0.009,-0.021,102.0,102.0,100.0,13.4,1505.2,321.3,-0.7,1.8,2471.009,13.29,0.032,106.2
2022-11-27T04:34:03,42.805,6.029,0.015,-0.023,-0.037,102.0,102.0,99.0,13.4,1505.2,321.5,-0.7,1.8,2471.048,13.29,0.027,146.9
2022-11-27T04:37:03,42.805,6.029,0.028,-0.03,-0.072,102.0,102.0,99.0,13.4,1505.2,319.6,-0.8,1.8,2471.015,13.29,0.041,137.0
2022-11-27T04:40:03,42.805,6.029,0.05,-0.021,-0.018,102.0,102.0,99.0,13.4,1505.2,323.2,-0.8,1.8,2471.01,13.29,0.054,112.8
2022-11-27T04:43:03,42.805,6.029,0.021,0.014,-0.007,102.0,101.0,100.0,13.4,1505.2,324.6,-0.8,1.8,2471.018,13.29,0.025,56.3
2022-11-27T04:46:03,42.805,6.029,0.022,-0.029,-0.035,101.0,102.0,100.0,13.4,1505.2,324.3,-0.7,1.8,2471.029,13.29,0.036,142.8
2022-11-27T04:49:03,42.805,6.029,0.02,-0.015,0.004,100.0,102.0,101.0,13.4,1505.2,329.2,-0.8,1.8,2471.03,13.29,0.025,126.9
2022-11-27T04:52:03,42.805,6.029,0.037,0.013,0.006,102.0,102.0,100.0,13.4,1505.2,318.4,-0.8,1.8,2471.012,13.29,0.039,70.6
2022-11-27T04:55:03,42.805,6.029,0.024,-0.03,-0.001,101.0,102.0,100.0,13.4,1505.2,335.1,-0.7,1.8,2471.052,13.29,0.038,141.3
2022-11-27T04:58:03,42.805,6.029,0.034,-0.012,-0.008,101.0,103.0,100.0,13.3,1505.2,326.3,-0.7,1.8,2471.035,13.29,0.036,109.4
2022-11-27T05:04:03,42.805,6.029,0.029,-0.02,-0.027,101.0,102.0,101.0,13.3,1505.2,322.6,-0.8,1.8,2471.083,13.28,0.035,124.6
2022-11-27T05:07:03,42.805,6.029,0.02,-0.027,-0.023,101.0,101.0,100.0,13.4,1505.2,330.1,-0.7,1.8,2471.063,13.28,0.033,143.5
2022-11-27T05:10:03,42.805,6.029,0.0,-0.016,-0.014,102.0,102.0,101.0,13.4,1505.2,333.0,-0.8,1.8,2471.093,13.28,0.016,180.0
2022-11-27T05:13:03,42.805,6.029,0.041,-0.005,-0.016,102.0,102.0,100.0,13.4,1505.2,333.7,-0.7,1.8,2471.076,13.28,0.041,97.0
2022-11-27T05:16:03,42.805,6.029,0.025,-0.005,-0.037,101.0,101.0,101.0,13.4,1505.2,328.6,-0.8,1.8,2471.083,13.29,0.025,101.3
2022-11-27T05:19:03,42.805,6.029,0.018,-0.002,0.0,101.0,102.0,101.0,13.3,1505.2,324.9,-0.8,1.8,2471.039,13.29,0.018,96.3
2022-11-27T05:22:03,42.805,6.029,0.042,-0.011,-0.015,101.0,102.0,100.0,13.4,1505.2,326.3,-0.8,1.8,2471.056,13.29,0.043,104.7
2022-11-27T05:25:03,42.805,6.029,0.014,0.002,0.014,101.0,101.0,100.0,13.4,1505.2,324.1,-0.8,1.8,2471.062,13.29,0.014,81.9
2022-11-27T05:28:03,42.805,6.029,0.015,-0.018,-0.022,101.0,101.0,100.0,13.4,1505.2,328.4,-0.8,1.8,2471.06,13.29,0.023,140.2
2022-11-27T05:31:03,42.805,6.029,0.029,0.0,0.011,100.0,102.0,101.0,13.3,1505.2,334.1,-0.7,1.8,2471.046,13.29,0.028,90.0
2022-11-27T05:34:03,42.805,6.029,0.019,-0.017,-0.026,102.0,101.0,100.0,13.4,1505.2,331.6,-0.7,1.8,2471.049,13.29,0.025,131.8
2022-11-27T05:37:03,42.805,6.029,0.005,0.006,-0.015,102.0,100.0,100.0,13.4,1505.2,335.9,-0.8,1.8,2471.048,13.29,0.007,39.8
2022-11-27T05:40:03,42.805,6.029,0.004,-0.002,-0.009,100.0,101.0,101.0,13.4,1505.2,318.2,-0.7,1.8,2471.093,13.29,0.004,116.6
2022-11-27T05:43:03,42.805,6.029,0.017,0.0,0.012,101.0,101.0,100.0,13.4,1505.2,327.3,-0.8,1.8,2471.047,13.29,0.017,90.0
2022-11-27T05:46:03,42.805,6.029,0.019,-0.023,-0.055,101.0,101.0,101.0,13.4,1505.2,321.7,-0.7,1.8,2471.073,13.29,0.029,140.4
2022-11-27T05:49:03,42.805,6.029,0.0,-0.007,-0.014,101.0,102.0,100.0,13.3,1505.2,322.7,-0.8,1.8,2471.077,13.29,0.007,180.0
2022-11-27T05:52:03,42.805,6.029,0.001,-0.011,-0.013,102.0,99.0,99.0,13.4,1505.2,328.7,-0.7,1.9,2471.055,13.29,0.011,174.8
2022-11-27T05:55:03,42.805,6.029,-0.007,0.02,0.021,102.0,102.0,100.0,13.4,1505.2,324.2,-0.8,1.8,2471.034,13.29,0.021,340.7
2022-11-27T05:58:03,42.805,6.029,0.05,-0.04,-0.066,102.0,101.0,100.0,13.4,1505.2,325.6,-0.8,1.8,2471.109,13.29,0.064,128.7
2022-11-27T06:04:03,42.805,6.029,0.032,-0.016,-0.019,100.0,102.0,101.0,13.4,1505.2,331.0,-0.8,1.8,2471.107,13.28,0.035,116.6
2022-11-27T06:07:03,42.805,6.029,0.013,-0.007,-0.006,102.0,101.0,100.0,13.3,1505.2,326.7,-0.8,1.8,2471.158,13.28,0.014,118.3
2022-11-27T06:10:03,42.805,6.029,0.006,-0.005,-0.006,101.0,102.0,100.0,13.4,1505.2,330.2,-0.8,1.8,2471.15,13.28,0.007,129.8
2022-11-27T06:13:03,42.805,6.029,0.026,-0.016,0.001,101.0,102.0,101.0,13.4,1505.2,328.9,-0.8,1.8,2471.155,13.29,0.03,121.6
2022-11-27T06:16:03,42.805,6.029,0.0,-0.025,-0.041,101.0,102.0,100.0,13.3,1505.2,319.0,-0.8,1.8,2471.108,13.29,0.025,180.0
2022-11-27T06:19:03,42.805,6.029,0.012,0.0,-0.046,101.0,103.0,100.0,13.4,1505.2,326.6,-0.8,1.8,2471.155,13.29,0.012,90.0
2022-11-27T06:22:03,42.805,6.029,0.025,0.0,-0.012,101.0,101.0,101.0,13.4,1505.2,336.1,-0.8,1.8,2471.113,13.29,0.025,90.0
2022-11-27T06:25:03,42.805,6.029,0.015,-0.006,-0.013,101.0,104.0,100.0,13.4,1505.2,324.6,-0.8,1.8,2471.116,13.29,0.016,111.8
2022-11-27T06:28:03,42.805,6.029,0.0,0.0,-0.008,101.0,102.0,100.0,13.4,1505.2,324.6,-0.7,1.8,2471.141,13.29,0.0,0.0
2022-11-27T06:31:03,42.805,6.029,-0.006,-0.004,-0.011,101.0,102.0,100.0,13.4,1505.2,326.9,-0.8,1.8,2471.148,13.29,0.007,236.3
2022-11-27T06:34:03,42.805,6.029,0.017,-0.011,-0.03,99.0,101.0,101.0,13.4,1505.2,322.2,-0.8,1.8,2471.139,13.29,0.02,122.9
2022-11-27T06:37:03,42.805,6.029,0.026,-0.01,-0.034,103.0,101.0,100.0,13.3,1505.2,336.2,-0.8,1.8,2471.111,13.29,0.027,111.0
2022-11-27T06:40:03,42.805,6.029,0.038,-0.012,-0.024,102.0,101.0,100.0,13.3,1505.2,316.9,-0.8,1.8,2471.141,13.29,0.039,107.5
2022-11-27T06:43:03,42.805,6.029,0.004,-0.013,0.0,101.0,101.0,101.0,13.4,1505.2,320.6,-0.8,1.9,2471.119,13.29,0.013,162.9
2022-11-27T06:46:03,42.805,6.029,0.011,-0.014,-0.006,103.0,100.0,100.0,13.4,1505.2,336.8,-0.7,1.8,2471.139,13.29,0.017,141.8
2022-11-27T06:49:03,42.805,6.029,0.038,0.0,0.023,101.0,100.0,100.0,13.3,1505.2,329.7,-0.7,1.8,2471.171,13.29,0.038,90.0
2022-11-27T06:52:03,42.805,6.029,0.019,-0.016,0.004,102.0,101.0,100.0,13.4,1505.2,317.7,-0.8,1.8,2471.144,13.29,0.024,130.1
2022-11-27T06:55:03,42.805,6.029,0.035,-0.019,-0.011,101.0,101.0,100.0,13.4,1505.2,319.1,-0.8,1.8,2471.121,13.29,0.039,118.5
2022-11-27T06:58:03,42.805,6.029,0.005,-0.016,-0.027,102.0,102.0,100.0,13.3,1505.2,326.5,-0.8,1.8,2471.158,13.29,0.016,162.6
2022-11-27T07:04:03,42.805,6.029,0.035,-0.01,0.006,101.0,101.0,101.0,13.3,1505.2,330.4,-0.7,1.9,2471.173,13.28,0.036,105.9
2022-11-27T07:07:03,42.805,6.029,0.027,-0.023,-0.027,101.0,102.0,100.0,13.4,1505.2,324.8,-0.7,1.8,2471.2,13.28,0.035,130.4
2022-11-27T07:10:03,42.805,6.029,0.008,-0.012,-0.031,101.0,101.0,100.0,13.4,1505.2,327.8,-0.8,1.8,2471.222,13.28,0.014,146.3
2022-11-27T07:13:03,42.805,6.029,0.013,0.0,-0.021,101.0,101.0,101.0,13.4,1505.2,327.5,-0.7,1.8,2471.163,13.29,0.013,90.0
2022-11-27T07:16:03,42.805,6.029,0.004,0.017,0.016,101.0,101.0,100.0,13.4,1505.2,322.0,-0.7,1.8,2471.171,13.29,0.017,13.2
2022-11-27T07:19:03,42.805,6.029,0.002,-0.009,0.0,101.0,102.0,100.0,13.4,1505.2,328.4,-0.7,1.8,2471.221,13.29,0.009,167.5
2022-11-27T07:22:03,42.805,6.029,0.021,-0.012,-0.02,102.0,99.0,100.0,13.3,1505.2,328.0,-0.8,1.8,2471.166,13.29,0.024,119.7
2022-11-27T07:25:03,42.805,6.029,0.024,0.02,0.022,101.0,101.0,101.0,13.4,1505.2,317.8,-0.8,1.8,2471.172,13.29,0.031,50.2
2022-11-27T07:28:03,42.805,6.029,0.023,-0.004,-0.022,102.0,101.0,101.0,13.4,1505.2,317.9,-0.7,1.8,2471.2,13.29,0.023,99.9
2022-11-27T07:31:03,42.805,6.029,-0.001,0.002,-0.054,102.0,102.0,100.0,13.3,1505.2,331.2,-0.8,1.8,2471.176,13.29,0.002,333.4
2022-11-27T07:34:03,42.805,6.029,0.016,-0.013,-0.006,101.0,101.0,100.0,13.4,1505.2,332.7,-0.8,1.8,2471.193,13.29,0.02,129.1
2022-11-27T07:37:03,42.805,6.029,0.011,-0.01,-0.006,102.0,100.0,100.0,13.4,1505.2,327.1,-0.8,1.8,2471.205,13.29,0.014,132.3
2022-11-27T07:40:03,42.805,6.029,0.0,-0.003,-0.02,100.0,102.0,101.0,13.4,1505.2,330.7,-0.7,1.8,2471.206,13.29,0.003,180.0
2022-11-27T07:43:03,42.805,6.029,0.002,0.001,-0.015,100.0,100.0,101.0,13.4,1505.2,321.0,-0.8,1.8,2471.175,13.29,0.002,63.4
2022-11-27T07:46:03,42.805,6.029,0.023,0.005,0.012,101.0,103.0,100.0,13.4,1505.2,322.9,-0.8,1.8,2471.181,13.29,0.023,77.7
2022-11-27T07:49:03,42.805,6.029,0.018,-0.023,-0.032,101.0,102.0,99.0,13.4,1505.2,329.5,-0.8,1.8,2471.226,13.29,0.029,142.0
2022-11-27T07:52:03,42.805,6.029,0.0,-0.007,-0.024,102.0,101.0,100.0,13.4,1505.2,323.4,-0.8,1.8,2471.2,13.29,0.007,180.0
2022-11-27T07:55:03,42.805,6.029,0.016,-0.02,0.007,102.0,100.0,100.0,13.4,1505.2,331.3,-0.8,1.8,2471.251,13.29,0.025,141.3
2022-11-27T07:58:03,42.805,6.029,0.02,-0.01,-0.051,100.0,103.0,100.0,13.4,1505.2,327.1,-0.7,1.8,2471.227,13.29,0.022,116.6
2022-11-27T08:04:03,42.805,6.029,0.008,-0.01,-0.02,100.0,100.0,101.0,13.4,1505.2,318.6,-0.8,1.8,2471.242,13.28,0.012,141.3
2022-11-27T08:07:03,42.805,6.029,0.0,0.017,-0.004,102.0,101.0,100.0,13.4,1505.2,327.0,-0.8,1.8,2471.307,13.28,0.017,0.0
2022-11-27T08:10:03,42.805,6.029,0.024,-0.008,0.0,100.0,101.0,101.0,13.4,1505.2,332.6,-0.8,1.9,2471.227,13.29,0.025,108.4
2022-11-27T08:13:03,42.805,6.029,0.004,-0.008,-0.018,101.0,102.0,100.0,13.4,1505.2,322.8,-0.8,1.8,2471.261,13.29,0.008,153.4
2022-11-27T08:16:03,42.805,6.029,0.012,-0.009,-0.007,100.0,101.0,101.0,13.3,1505.2,329.4,-0.8,1.9,2471.265,13.29,0.015,126.9
2022-11-27T08:19:03,42.805,6.029,0.023,-0.005,-0.014,101.0,102.0,101.0,13.4,1505.2,326.3,-0.8,1.8,2471.254,13.29,0.023,102.3
2022-11-27T08:22:03,42.805,6.029,0.005,-0.005,0.012,101.0,101.0,101.0,13.4,1505.2,319.0,-0.7,1.8,2471.269,13.29,0.007,135.0
2022-11-27T08:25:03,42.805,6.029,0.006,0.009,0.009,101.0,101.0,99.0,13.4,1505.2,326.3,-0.8,1.8,2471.276,13.29,0.01,33.7
2022-11-27T08:28:03,42.805,6.029,-0.002,0.001,-0.018,101.0,100.0,100.0,13.3,1505.2,331.5,-0.7,1.8,2471.216,13.29,0.002,296.6
2022-11-27T08:31:03,42.805,6.029,0.001,-0.006,0.017,101.0,102.0,101.0,13.4,1505.2,326.0,-0.8,1.8,2471.236,13.29,0.006,170.5
2022-11-27T08:34:03,42.805,6.029,0.027,-0.027,-0.054,100.0,101.0,100.0,13.3,1505.2,327.9,-0.8,1.8,2471.294,13.29,0.038,135.0
2022-11-27T08:37:03,42.805,6.029,0.002,-0.015,-0.064,101.0,100.0,101.0,13.4,1505.2,324.6,-0.7,1.8,2471.281,13.29,0.015,172.4
2022-11-27T08:40:03,42.805,6.029,-0.004,-0.013,-0.006,101.0,101.0,100.0,13.4,1505.2,315.9,-0.7,1.8,2471.241,13.29,0.013,197.1
2022-11-27T08:43:03,42.805,6.029,-0.037,-0.018,-0.03,100.0,102.0,100.0,13.4,1505.2,331.9,-0.7,1.8,2471.252,13.29,0.041,244.1
2022-11-27T08:46:03,42.805,6.029,-0.004,0.007,0.008,101.0,100.0,100.0,13.4,1505.2,321.2,-0.8,1.8,2471.297,13.29,0.008,330.3
2022-11-27T08:49:03,42.805,6.029,0.021,-0.026,-0.032,101.0,101.0,100.0,13.3,1505.2,328.9,-0.8,1.8,2471.244,13.29,0.033,141.1
2022-11-27T08:52:03,42.805,6.029,0.021,-0.003,0.005,101.0,101.0,100.0,13.3,1505.2,326.7,-0.7,1.8,2471.227,13.29,0.021,98.1
2022-11-27T08:55:03,42.805,6.029,0.01,0.001,-0.054,101.0,101.0,100.0,13.4,1505.2,326.1,-0.8,1.9,2471.275,13.29,0.01,84.3
2022-11-27T08:58:03,42.805,6.029,0.0,0.0,-0.017,101.0,101.0,100.0,13.4,1505.2,316.4,-0.7,1.8,2471.277,13.29,0.0,0.0
2022-11-27T09:04:03,42.805,6.029,0.001,-0.017,0.0,101.0,101.0,100.0,13.4,1505.2,323.8,-0.8,1.8,2471.296,13.28,0.017,176.6
2022-11-27T09:07:03,42.805,6.029,-0.006,0.007,0.004,100.0,102.0,101.0,13.4,1505.2,331.2,-0.8,1.8,2471.27,13.29,0.009,319.4
2022-11-27T09:10:03,42.805,6.029,0.0,0.0,0.003,101.0,100.0,100.0,13.4,1505.2,318.6,-0.8,1.8,2471.28,13.29,0.0,0.0
2022-11-27T09:13:03,42.805,6.029,0.012,-0.001,0.008,101.0,102.0,99.0,13.3,1505.2,330.4,-0.8,1.8,2471.312,13.29,0.012,94.8
2022-11-27T09:16:03,42.805,6.029,0.02,-0.013,-0.031,100.0,103.0,100.0,13.3,1505.2,322.8,-0.8,1.8,2471.307,13.29,0.023,123.0
2022-11-27T09:19:03,42.805,6.029,0.009,0.006,-0.006,101.0,102.0,100.0,13.4,1505.2,318.0,-0.8,1.8,2471.329,13.29,0.01,56.3
2022-11-27T09:22:03,42.805,6.029,0.019,0.0,-0.001,101.0,103.0,101.0,13.4,1505.2,330.8,-0.7,1.8,2471.303,13.29,0.019,90.0
2022-11-27T09:25:03,42.805,6.029,0.0,-0.002,-0.02,101.0,101.0,101.0,13.4,1505.2,319.4,-0.7,1.8,2471.275,13.29,0.002,180.0
2022-11-27T09:28:03,42.805,6.029,0.012,-0.007,-0.027,101.0,102.0,100.0,13.3,1505.2,319.1,-0.7,1.8,2471.299,13.29,0.013,120.3
2022-11-27T09:31:03,42.805,6.029,-0.003,0.0,0.0,100.0,102.0,100.0,13.3,1505.2,318.9,-0.8,1.8,2471.259,13.29,0.003,270.0
2022-11-27T09:34:03,42.805,6.029,0.01,0.011,-0.01,101.0,103.0,100.0,13.4,1505.2,322.7,-0.7,1.8,2471.297,13.29,0.014,42.3
2022-11-27T09:37:03,42.805,6.029,0.022,0.018,0.001,100.0,102.0,100.0,13.4,1505.2,328.4,-0.7,1.8,2471.331,13.29,0.028,50.7
2022-11-27T09:40:03,42.805,6.029,-0.021,0.013,-0.038,101.0,103.0,100.0,13.4,1505.2,325.0,-0.8,1.8,2471.309,13.29,0.024,301.8
2022-11-27T09:43:03,42.805,6.029,0.013,0.017,-0.01,101.0,101.0,100.0,13.3,1505.2,332.1,-0.7,1.8,2471.321,13.29,0.021,37.4
2022-11-27T09:46:03,42.805,6.029,0.003,0.003,-0.004,100.0,101.0,101.0,13.3,1505.2,332.0,-0.7,1.8,2471.341,13.29,0.004,45.0
2022-11-27T09:49:03,42.805,6.029,0.015,0.02,-0.006,101.0,100.0,101.0,13.4,1505.2,323.5,-0.7,1.8,2471.319,13.29,0.025,36.9
2022-11-27T09:52:03,42.805,6.029,0.027,-0.026,-0.007,100.0,101.0,100.0,13.4,1505.2,333.0,-0.8,1.8,2471.307,13.29,0.037,133.9
2022-11-27T09:55:03,42.805,6.029,0.009,0.002,-0.022,101.0,101.0,100.0,13.4,1505.2,318.6,-0.8,1.8,2471.294,13.29,0.009,77.5
2022-11-27T09:58:03,42.805,6.029,0.017,0.0,-0.016,101.0,102.0,101.0,13.4,1505.2,329.1,-0.8,1.8,2471.31,13.29,0.017,90.0
2022-11-27T10:04:03,42.805,6.029,0.004,0.022,-0.011,102.0,100.0,100.0,13.3,1505.2,328.2,-0.8,1.8,2471.306,13.29,0.022,10.3